{"data":{"norad_id":68602,"intl_designator":"2026-073A","name":"STARLINK-37135","alt_names":[],"object_type":"PAYLOAD","status":"ACTIVE","operator":null,"country":"US","launch_date":"2026-04-07","launch_site_code":"AFWTR","launch_vehicle":null,"mission":null,"orbit_class":"UNKNOWN","rcs_meters":null,"size_class":null,"mass_kg":null,"dimensions":null,"purposes":["comms"],"wikipedia_slug":null,"has_3d_model":false,"image_url":null,"decayed_at":null,"tle_current":{"epoch":"2026-09-20T00:07:49.933920Z","epoch_age_seconds":87497,"freshness":"FRESH","line1":"1 68602U 26073A   26263.00543905  .00007434  00000+0  23238-3 0  9993","line2":"2 68602  97.2846 101.0068 0000895  93.1010 267.0335 15.33444558 25669","mean_motion":15.33444558,"eccentricity":8.95e-5,"inclination_deg":97.2846,"raan_deg":101.0068,"arg_perigee_deg":93.101,"mean_anomaly_deg":267.0335,"bstar":0.00023238,"rev_number":2566,"period_min":93.906231724356,"perigee_km":464.93198006616,"apogee_km":466.15699905279,"semimajor_km":6843.6814895595,"source":"CELESTRAK","updated_at":"2026-09-20T09:00:43.940760Z"}}}